Location: Bodham
(52.9000°N, 1.1667°E)
Time: 14:38:24
(UTC+00:00)

Cosmos 2112 Rocket - Pass Details

Date: 14 October 2025
Orbit: 753 x 782 km, 74.0° (Epoch: 13 November)

Event Time Altitude Azimuth Distance (km) Brightness Sun altitude
Rises 05:25:18 0° 335° (NNW) 3,256 7.0 -9.0°
Reaches altitude 10° 05:27:45 10° 340° (NNW) 2,320 6.3 -8.6°
Maximum altitude 05:32:55 56° 59° (ENE) 904 4.7 -7.8°
Drops below altitude 10° 05:38:02 10° 138° (SE) 2,287 7.2 -7.1°
Sets 05:40:25 0° 142° (SE) 3,205 7.9 -6.7°
